Overview Statistics Trail Chart Weather Telemetry Raw packets
 

This is the latest recevied weather packets stored in our database for station/object WX4SGA. If no packets are shown the sender has not sent any weather packets the latest 10 day(s).

<< 72 73 74 75 76 77 78 >>
Time Temp. Humidity Pressure Rain* Wind** Luminosity Snow
1788126692 28.89° C 81% 1018 hPa 0 mm - 349 W/m² -
1788126387 28.33° C 82% 1018 hPa 0 mm - 395 W/m² -
1788126082 28.33° C 85% 1018 hPa 0 mm - 363 W/m² -
1788125781 27.78° C 86% 1018.3 hPa 0 mm - 291 W/m² -
1788125476 27.78° C 87% 1018 hPa 0 mm - 147 W/m² -
1788125172 27.78° C 88% 1018.3 hPa 0 mm - 140 W/m² -
1788124867 27.78° C 89% 1018 hPa 0 mm - 155 W/m² -
1788124562 27.78° C 88% 1018 hPa 0 mm - 128 W/m² -
1788124255 27.22° C 89% 1018 hPa 0 mm - 153 W/m² -
1788123950 27.22° C 91% 1018 hPa 0 mm - 162 W/m² -
1788123644 27.22° C 92% 1018.3 hPa 0 mm - 199 W/m² -
1788123342 26.67° C 91% 1018.3 hPa 0 mm - 232 W/m² -
1788123038 26.67° C 93% 1018.3 hPa 0 mm - 234 W/m² -
1788122736 26.11° C 93% 1018.3 hPa 3.56 mm - 237 W/m² -
1788122430 26.11° C 94% 1018.3 hPa 7.11 mm - 287 W/m² -
1788122126 26.11° C 95% 1018.3 hPa 7.11 mm - 202 W/m² -
1788121816 26.11° C 96% 1018.3 hPa 8.89 mm - 213 W/m² -
1788121515 25.56° C 96% 1018.6 hPa 8.89 mm - 230 W/m² -
1788121212 25.56° C 97% 1018.6 hPa 8.89 mm - 267 W/m² -
1788120914 25° C 98% 1018.6 hPa 10.92 mm - 479 W/m² -
1788120606 25° C 99% 1018.6 hPa 8.89 mm - 558 W/m² -
1788120301 24.44° C 99% 1018.6 hPa 8.89 mm - 501 W/m² -
1788120000 23.89° C 99% 1018.6 hPa 8.89 mm - 282 W/m² -
1788119696 23.33° C 99% 1018.6 hPa 10.92 mm - 251 W/m² -
1788119394 23.33° C 99% 1018.6 hPa 10.92 mm - 204 W/m² -

* Rain latest hour (hover to see other rain measurements)
** Current wind speed in m/s (hover to see current wind gust speed)